1491876000.13,12033,15.63,73416.3,-2.81,-4.77,-4.99,0,*58
1491876001.39,12034,15.63,73416.3,-2.81,-4.77,-4.77,0,*5F
1491876002.66,12035,15.63,73416.5,-2.81,-5.15,-5.15,0,*5E
1491876003.94,12036,15.63,73420.5,-2.81,-5.15,-5.15,0,*5D
1491876005.22,12037,15.63,73420.5,-2.81,-5.15,-5.23,0,*59
1491876006.49,12038,15.63,73422.0,-2.81,-5.15,-5.11,0,*57
1491876007.73,12039,15.63,73416.3,-2.81,-4.99,-5.03,0,*50
1491876009.0,12040,15.63,73422.3,-2.81,-5.11,-5.11,0,*5C
1491876010.27,12041,15.63,73420.0,-2.81,-4.89,-4.89,0,*5D
1491876011.54,12042,15.63,73420.8,-2.81,-4.73,-4.85,0,*57
1491876012.76,12043,15.63,73420.3,-2.79,-4.61,-4.73,0,*5B
1491876014.02,12044,15.63,73422.5,-2.81,-4.73,-4.77,0,*5C
1491876015.28,12045,15.63,73416.3,-2.81,-4.73,-4.77,0,*5D
1491876016.51,12046,15.63,73414.5,-2.79,-4.61,-4.69,0,*55
1491876017.71,12047,15.63,73418.3,-2.79,-4.57,-4.61,0,*59
1491876018.91,12048,15.63,73418.0,-2.79,-4.61,-4.61,0,*53
1491876020.15,12049,15.63,73418.5,-2.79,-4.69,-4.81,0,*54
1491876021.39,12050,15.63,73416.3,-2.79,-4.69,-4.69,0,*5A
1491876022.62,12051,15.63,73414.3,-2.77,-4.57,-4.61,0,*50
1491876023.87,12052,15.63,73412.3,-2.77,-4.61,-4.69,0,*5E
1491876025.09,12053,15.63,73416.3,-2.77,-4.57,-4.57,0,*57
1491876026.32,12054,15.63,73414.3,-2.77,-4.57,-4.61,0,*55
1491876027.54,12055,15.63,73418.8,-2.77,-4.61,-4.61,0,*51
1491876028.77,12056,15.63,73416.3,-2.75,-4.57,-4.65,0,*51
1491876030.01,12057,15.63,73410.5,-2.75,-4.57,-4.57,0,*51
1491876031.23,12058,15.63,73402.3,-2.75,-4.53,-4.53,0,*5E
1491876032.45,12059,15.63,73418.0,-2.75,-4.45,-4.45,0,*5F
1491876033.64,12060,15.63,73412.5,-2.73,-4.41,-4.45,0,*57
1491876034.83,12061,15.63,73414.5,-2.73,-4.53,-4.49,0,*59
1491876036.03,12062,15.63,73410.5,-2.69,-4.53,-4.53,0,*5A
1491876037.27,12063,15.63,73408.0,-2.73,-4.69,-4.69,0,*50
1491876038.48,12064,15.63,73408.8,-2.69,-4.61,-4.61,0,*5C
1491876039.67,12065,15.63,73416.3,-2.73,-4.45,-4.57,0,*55
1491876040.87,12066,15.63,73416.3,-2.73,-4.65,-4.57,0,*54
1491876042.11,12067,15.63,73412.3,-2.73,-4.77,-4.81,0,*5D
1491876043.35,12068,15.63,73414.5,-2.73,-4.93,-4.89,0,*50
1491876044.61,12069,15.63,73412.0,-2.73,-5.07,-5.07,0,*5A
1491876045.84,12070,15.63,73414.3,-2.69,-4.99,-5.03,0,*5B
1491876047.1,12071,15.63,73412.8,-2.69,-5.03,-5.03,0,*58
1491876048.35,12072,15.63,73412.0,-2.73,-5.19,-5.19,0,*50
1491876049.6,12073,15.63,73414.0,-2.69,-5.11,-5.15,0,*5E
1491876050.86,12074,15.63,73418.0,-2.69,-5.15,-5.15,0,*5D
1491876052.11,12075,15.63,73416.8,-2.73,-5.15,-5.15,0,*57
1491876053.37,12076,15.63,73416.0,-2.73,-5.15,-5.15,0,*54
1491876054.61,12077,15.63,73416.3,-2.73,-4.93,-5.03,0,*5D
1491876055.87,12078,15.63,73416.0,-2.73,-5.03,-5.07,0,*5E
1491876057.12,12079,15.63,73418.3,-2.73,-5.03,-5.07,0,*5F
1491876058.38,12080,15.63,73412.8,-2.73,-5.15,-5.15,0,*5D
1491876059.63,12081,15.63,73416.0,-2.73,-5.07,-5.07,0,*5C
1491876060.88,12082,15.63,73418.5,-2.73,-5.15,-5.15,0,*5F
1491876062.14,12083,15.63,73414.8,-2.73,-5.03,-5.03,0,*5E
1491876063.33,12084,15.63,73414.3,-2.69,-4.99,-4.99,0,*52
1491876064.59,12085,15.63,73414.8,-2.73,-5.07,-5.07,0,*58
1491876065.85,12086,15.63,73414.5,-2.73,-5.19,-5.23,0,*52
1491876067.1,12087,15.63,73418.5,-2.73,-5.15,-5.15,0,*5A
1491876068.36,12088,15.63,73416.5,-2.73,-5.07,-5.07,0,*55
1491876069.61,12089,15.63,73416.3,-2.73,-5.07,-5.03,0,*50
1491876070.86,12090,15.63,73416.3,-2.73,-5.07,-5.15,0,*5F
1491876072.12,12091,15.63,73416.3,-2.73,-5.07,-5.15,0,*5E
1491876073.37,12092,15.63,73416.3,-2.73,-5.23,-5.31,0,*5D
1491876074.66,12093,15.63,73416.5,-2.75,-5.15,-5.23,0,*5C
1491876075.94,12094,15.63,73416.8,-2.75,-5.19,-5.15,0,*52
1491876077.22,12095,15.63,73420.0,-2.75,-5.19,-5.19,0,*5F
1491876078.5,12096,15.63,73420.5,-2.75,-5.23,-5.19,0,*55
1491876079.79,12097,15.63,73420.5,-2.75,-5.23,-5.23,0,*5D
1491876081.03,12098,15.63,73420.0,-2.77,-5.27,-5.35,0,*53
1491876082.32,12099,15.63,73422.3,-2.75,-5.23,-5.23,0,*53
1491876083.6,12100,15.63,73422.0,-2.77,-5.19,-5.19,0,*50
1491876084.88,12101,15.63,73416.8,-2.75,-5.07,-5.07,0,*53
1491876086.17,12102,15.63,73420.0,-2.75,-5.07,-5.07,0,*50
1491876087.45,12103,15.63,73418.3,-2.75,-5.07,-5.07,0,*51
1491876088.74,12104,15.63,73416.3,-2.75,-5.07,-5.07,0,*56
1491876090.01,12105,15.63,73416.8,-2.77,-5.11,-5.11,0,*55
1491876091.29,12106,15.63,73418.8,-2.77,-5.07,-5.07,0,*56
1491876092.58,12107,15.63,73420.0,-2.75,-5.07,-5.07,0,*55
1491876093.86,12108,15.63,73420.8,-2.77,-5.23,-5.23,0,*58
1491876095.11,12109,15.63,73420.0,-2.75,-5.35,-5.31,0,*5F
1491876096.34,12110,15.63,73416.0,-2.75,-5.43,-5.35,0,*52
1491876097.61,12111,15.63,73418.3,-2.77,-5.27,-5.27,0,*50
1491876098.86,12112,15.63,73414.8,-2.77,-5.35,-5.23,0,*54
1491876100.15,12113,15.63,73420.8,-2.77,-5.23,-5.23,0,*52
1491876101.42,12114,15.63,73416.0,-2.77,-5.27,-5.27,0,*55
1491876102.7,12115,15.63,73420.3,-2.77,-5.27,-5.23,0,*50
1491876103.96,12116,15.63,73418.0,-2.79,-5.23,-5.23,0,*59
1491876105.16,12117,15.63,73422.3,-2.79,-5.35,-5.35,0,*58
1491876106.36,12118,15.63,73418.8,-2.79,-5.39,-5.39,0,*57
1491876107.55,12119,15.63,73420.5,-2.79,-5.39,-5.35,0,*5A
1491876108.78,12120,15.63,73418.0,-2.79,-5.35,-5.27,0,*5F
1491876110.04,12121,15.63,73420.5,-2.79,-5.23,-5.27,0,*59
1491876111.26,12122,15.63,73416.8,-2.79,-5.27,-5.35,0,*5D
1491876112.51,12123,15.63,73422.3,-2.81,-5.31,-5.39,0,*50
1491876113.76,12124,15.63,73422.0,-2.79,-5.27,-5.27,0,*58
1491876114.98,12125,15.63,73422.3,-2.81,-5.39,-5.39,0,*5E
1491876116.23,12126,15.63,73422.0,-2.81,-5.31,-5.39,0,*55
1491876117.45,12127,15.63,73420.8,-2.79,-5.27,-5.35,0,*58
1491876118.7,12128,15.63,73418.3,-2.81,-5.39,-5.31,0,*5B
1491876119.97,12129,15.63,73420.0,-2.81,-5.23,-5.15,0,*57
1491876121.24,12130,15.63,73416.3,-2.81,-5.23,-5.15,0,*5F
1491876122.52,12131,15.63,73420.3,-2.81,-5.27,-5.23,0,*5F
1491876123.73,12132,15.63,73420.5,-2.81,-5.43,-5.39,0,*55
1491876125.01,12133,15.63,73422.0,-2.81,-5.31,-5.31,0,*59
1491876126.28,12134,15.63,73416.8,-2.81,-5.31,-5.31,0,*5E
1491876127.47,12135,15.63,73416.8,-2.83,-5.43,-5.43,0,*5D
1491876128.67,12136,15.63,73420.8,-2.83,-5.35,-5.43,0,*5F
1491876129.86,12137,15.63,73422.5,-2.83,-5.35,-5.35,0,*5F
1491876131.08,12138,15.63,73420.0,-2.83,-5.31,-5.35,0,*54
1491876132.3,12139,15.63,73420.5,-2.81,-5.43,-5.39,0,*5E
1491876133.49,12140,15.63,73422.0,-2.83,-5.47,-5.47,0,*5F
1491876134.69,12141,15.63,73422.3,-2.83,-5.35,-5.35,0,*5E
1491876135.96,12142,15.63,73418.8,-2.81,-5.27,-5.27,0,*5F
1491876137.23,12143,15.63,73420.5,-2.81,-5.11,-5.11,0,*5E
1491876138.5,12144,15.63,73422.3,-2.81,-5.15,-5.15,0,*59
1491876139.75,12145,15.63,73422.8,-2.83,-5.27,-5.27,0,*5A
1491876141.0,12146,15.63,73420.3,-2.83,-5.27,-5.27,0,*59
1491876142.28,12147,15.63,73416.8,-2.85,-5.19,-5.19,0,*5E
1491876143.53,12148,15.63,73420.0,-2.83,-5.19,-5.19,0,*57
1491876144.78,12149,15.63,73416.3,-2.83,-5.27,-5.31,0,*51
1491876146.03,12150,15.63,73418.3,-2.83,-5.31,-5.27,0,*59
1491876147.26,12151,15.63,73420.0,-2.83,-5.35,-5.31,0,*5B
1491876148.45,12152,15.63,73420.5,-2.83,-5.35,-5.35,0,*5C
1491876149.64,12153,15.63,73416.8,-2.83,-5.35,-5.35,0,*5D
1491876150.89,12154,15.63,73420.5,-2.83,-5.27,-5.27,0,*5A
1491876152.14,12155,15.63,73422.5,-2.83,-5.31,-5.31,0,*5B
1491876153.43,12156,15.63,73422.0,-2.85,-5.31,-5.31,0,*5E
1491876154.71,12157,15.63,73420.3,-2.85,-5.27,-5.27,0,*5F
1491876155.96,12158,15.63,73420.8,-2.83,-5.19,-5.19,0,*56
1491876157.2,12159,15.63,73420.5,-2.83,-5.19,-5.15,0,*5B
1491876158.48,12160,15.63,73422.0,-2.85,-5.15,-5.15,0,*5B
1491876159.74,12161,15.63,73420.8,-2.83,-5.07,-5.07,0,*5C
1491876160.99,12162,15.63,73420.8,-2.83,-5.19,-5.19,0,*5F
1491876162.24,12163,15.63,73416.3,-2.83,-5.31,-5.27,0,*59
1491876163.5,12164,15.63,73418.5,-2.83,-5.31,-5.27,0,*5E
1491876164.75,12165,15.63,73422.8,-2.83,-5.31,-5.31,0,*58
1491876166.0,12166,15.63,73422.0,-2.83,-5.27,-5.19,0,*56
1491876167.28,12167,15.63,73424.0,-2.85,-5.15,-5.15,0,*5C
1491876168.52,12168,15.63,73418.0,-2.83,-5.27,-5.19,0,*58
1491876169.77,12169,15.63,73420.3,-2.83,-5.27,-5.15,0,*55
1491876171.02,12170,15.63,73422.0,-2.83,-5.27,-5.19,0,*51
1491876172.27,12171,15.63,73420.0,-2.83,-5.27,-5.07,0,*5F
1491876173.55,12172,15.63,73422.3,-2.85,-5.03,-4.93,0,*50
1491876174.8,12173,15.63,73416.8,-2.83,-5.07,-5.07,0,*5F
1491876176.08,12174,15.63,73420.8,-2.85,-5.19,-5.15,0,*52
1491876177.36,12175,15.63,73424.0,-2.85,-5.19,-5.19,0,*5F
1491876178.61,12176,15.63,73424.8,-2.83,-5.27,-5.27,0,*5A
1491876179.86,12177,15.63,73422.3,-2.83,-5.19,-5.07,0,*54
1491876181.11,12178,15.63,73424.8,-2.83,-5.03,-4.93,0,*5C
1491876182.39,12179,15.63,73424.5,-2.85,-5.07,-5.03,0,*57
1491876183.64,12180,15.63,73422.3,-2.83,-5.15,-5.19,0,*5F
1491876184.9,12181,15.63,73418.8,-2.83,-5.03,-5.03,0,*52
1491876186.15,12182,15.63,73416.5,-2.83,-5.03,-4.93,0,*59
1491876187.4,12183,15.63,73416.5,-2.83,-5.07,-5.07,0,*50
1491876188.65,12184,15.63,73420.8,-2.83,-5.19,-5.07,0,*58
1491876189.93,12185,15.63,73416.8,-2.85,-4.89,-4.81,0,*58
1491876191.12,12186,15.63,73418.8,-2.83,-4.65,-4.57,0,*54
1491876192.34,12187,15.63,73412.8,-2.83,-4.69,-4.57,0,*59
1491876193.54,12188,15.63,73414.5,-2.83,-4.65,-4.53,0,*5E
1491876194.76,12189,15.63,73410.8,-2.81,-4.65,-4.53,0,*5D
1491876195.98,12190,15.63,73408.8,-2.81,-4.61,-4.53,0,*51
1491876197.2,12191,15.63,73414.5,-2.81,-4.65,-4.53,0,*54
1491876198.46,12192,15.63,73416.5,-2.81,-4.85,-4.77,0,*5F
1491876199.72,12193,15.63,73414.3,-2.81,-4.85,-4.89,0,*5F
1491876200.98,12194,15.63,73420.5,-2.81,-4.85,-4.89,0,*58
1491876202.25,12195,15.63,73416.5,-2.81,-4.85,-4.85,0,*55
1491876203.51,12196,15.63,73414.3,-2.81,-4.85,-4.77,0,*5B
1491876204.72,12197,15.63,73416.5,-2.81,-4.99,-4.99,0,*57
1491876205.98,12198,15.63,73416.8,-2.81,-4.85,-4.77,0,*55
1491876207.2,12199,15.63,73422.8,-2.81,-4.65,-4.53,0,*5C
1491876208.42,12200,15.63,73422.5,-2.81,-4.61,-4.53,0,*5B
1491876209.63,12201,15.63,73416.3,-2.81,-4.61,-4.49,0,*51
1491876210.85,12202,15.63,73418.0,-2.81,-4.45,-4.37,0,*5D
1491876212.03,12203,15.63,73414.8,-2.79,-4.45,-4.33,0,*5F
1491876213.23,12204,15.63,73412.5,-2.79,-4.61,-4.49,0,*53
1491876214.43,12205,15.63,73418.8,-2.79,-4.61,-4.57,0,*5D
1491876215.7,12206,15.63,73416.3,-2.77,-4.85,-4.69,0,*57
1491876216.96,12207,15.63,73418.5,-2.77,-4.85,-4.81,0,*50
1491876218.23,12208,15.63,73416.5,-2.77,-4.93,-4.85,0,*5C
1491876219.5,12209,15.63,73418.8,-2.77,-5.07,-4.93,0,*56
1491876220.72,12210,15.63,73416.3,-2.79,-5.11,-4.99,0,*5D
1491876221.94,12211,15.63,73414.3,-2.79,-5.11,-4.99,0,*5C
1491876223.16,12212,15.63,73414.8,-2.79,-5.07,-4.99,0,*58
1491876224.41,12213,15.63,73412.0,-2.79,-5.11,-5.07,0,*58
1491876225.66,12214,15.63,73418.0,-2.79,-5.11,-5.11,0,*58
1491876226.94,12215,15.63,73416.5,-2.81,-5.15,-5.11,0,*5A
1491876228.19,12216,15.63,73420.5,-2.79,-5.07,-4.93,0,*56
1491876229.44,12217,15.63,73416.0,-2.79,-5.07,-4.85,0,*50
1491876230.66,12218,15.63,73422.3,-2.79,-5.07,-4.99,0,*52
1491876231.88,12219,15.63,73416.0,-2.79,-5.11,-4.99,0,*54
1491876233.13,12220,15.63,73420.0,-2.79,-5.11,-5.11,0,*5F
1491876234.4,12221,15.63,73420.5,-2.81,-5.15,-5.03,0,*5E
1491876235.59,12222,15.63,73418.5,-2.79,-4.99,-4.99,0,*5D
1491876236.85,12223,15.63,73416.8,-2.79,-5.07,-4.93,0,*50
1491876238.09,12224,15.63,73420.3,-2.79,-5.11,-4.85,0,*57
1491876239.31,12225,15.63,73420.0,-2.79,-4.99,-4.85,0,*57
1491876240.59,12226,15.63,73420.3,-2.81,-5.03,-4.89,0,*5D
1491876241.83,12227,15.63,73420.0,-2.79,-4.93,-4.81,0,*5B
1491876243.1,12228,15.63,73420.3,-2.81,-4.89,-4.73,0,*55
1491876244.34,12229,15.63,73418.3,-2.79,-4.81,-4.81,0,*56
1491876245.58,12230,15.63,73416.3,-2.79,-4.93,-4.81,0,*5D
1491876246.8,12231,15.63,73416.3,-2.79,-4.99,-4.93,0,*55
1491876248.04,12232,15.63,73418.3,-2.79,-4.93,-4.85,0,*5B
1491876249.28,12233,15.63,73418.3,-2.79,-4.85,-4.73,0,*54
1491876250.5,12234,15.63,73418.8,-2.79,-4.73,-4.61,0,*59
1491876251.7,12235,15.63,73416.3,-2.79,-4.57,-4.45,0,*58
1491876252.89,12236,15.63,73414.3,-2.79,-4.61,-4.45,0,*5E
1491876254.09,12237,15.63,73412.8,-2.79,-4.57,-4.45,0,*5A
1491876255.31,12238,15.63,73414.5,-2.77,-4.61,-4.57,0,*5D
1491876256.54,12239,15.63,73416.5,-2.77,-4.57,-4.57,0,*59
1491876257.76,12240,15.63,73414.0,-2.77,-4.57,-4.49,0,*58
1491876259.01,12241,15.63,73416.8,-2.79,-4.73,-4.69,0,*53
1491876260.23,12242,15.63,73416.3,-2.79,-4.69,-4.61,0,*53
1491876261.47,12243,15.63,73422.0,-2.77,-4.69,-4.61,0,*5C
1491876262.71,12244,15.63,73416.5,-2.77,-4.69,-4.61,0,*5B
1491876263.93,12245,15.63,73416.0,-2.79,-4.69,-4.57,0,*51
1491876265.15,12246,15.63,73416.5,-2.79,-4.69,-4.57,0,*52
1491876266.37,12247,15.63,73416.5,-2.79,-4.69,-4.61,0,*56
1491876267.58,12248,15.63,73418.8,-2.79,-4.69,-4.61,0,*59
1491876268.81,12249,15.63,73414.3,-2.75,-4.65,-4.57,0,*5D
1491876270.08,12250,15.63,73416.8,-2.75,-4.69,-4.69,0,*54
1491876271.35,12251,15.63,73418.5,-2.77,-4.81,-4.69,0,*51
1491876272.62,12252,15.63,73416.3,-2.77,-4.81,-4.73,0,*59
1491876273.86,12253,15.63,73416.0,-2.79,-4.81,-4.85,0,*5F
1491876275.13,12254,15.63,73418.8,-2.77,-4.69,-4.73,0,*59
1491876276.37,12255,15.63,73416.8,-2.77,-4.61,-4.69,0,*5B
1491876277.62,12256,15.63,73418.0,-2.79,-4.73,-4.73,0,*5E
1491876278.88,12257,15.63,73416.8,-2.77,-4.69,-4.69,0,*51
1491876280.11,12258,15.63,73420.3,-2.77,-4.57,-4.57,0,*5E
1491876281.35,12259,15.63,73422.8,-2.79,-4.69,-4.73,0,*5A
1491876282.58,12260,15.63,73422.0,-2.77,-4.57,-4.57,0,*55
1491876283.8,12261,15.63,73416.8,-2.77,-4.41,-4.41,0,*54
1491876285.02,12262,15.63,73418.5,-2.77,-4.41,-4.41,0,*57
1491876286.24,12263,15.63,73414.3,-2.75,-4.41,-4.41,0,*54
1491876287.46,12264,15.63,73418.8,-2.77,-4.49,-4.41,0,*59
1491876288.69,12265,15.63,73418.8,-2.75,-4.41,-4.37,0,*53
1491876289.9,12266,15.63,73416.5,-2.77,-4.49,-4.45,0,*5F
1491876291.12,12267,15.63,73422.3,-2.77,-4.49,-4.49,0,*52
1491876292.36,12268,15.63,73420.8,-2.77,-4.61,-4.69,0,*55
1491876293.6,12269,15.63,73420.0,-2.77,-4.69,-4.61,0,*54
1491876294.87,12270,15.63,73422.8,-2.77,-4.73,-4.73,0,*54
1491876296.14,12271,15.63,73420.3,-2.77,-4.69,-4.69,0,*55
1491876297.36,12272,15.63,73416.3,-2.77,-4.57,-4.61,0,*53
1491876298.57,12273,15.63,73416.3,-2.77,-4.49,-4.45,0,*5B
1491876299.82,12274,15.63,73418.8,-2.77,-4.69,-4.61,0,*58
1491876301.06,12275,15.63,73416.3,-2.77,-4.69,-4.61,0,*59
1491876302.31,12276,15.63,73420.0,-2.75,-4.73,-4.61,0,*53
1491876303.53,12277,15.63,73420.5,-2.75,-4.65,-4.65,0,*51
1491876304.75,12278,15.63,73420.3,-2.77,-4.49,-4.49,0,*5C
1491876305.98,12279,15.63,73422.0,-2.75,-4.53,-4.53,0,*5F
1491876307.24,12280,15.63,73418.8,-2.77,-4.69,-4.69,0,*5B
1491876308.51,12281,15.63,73416.8,-2.75,-4.69,-4.69,0,*58
1491876309.74,12282,15.63,73412.8,-2.75,-4.53,-4.57,0,*5F
1491876310.97,12283,15.63,73418.5,-2.75,-4.57,-4.57,0,*5A
1491876312.23,12284,15.63,73418.8,-2.77,-4.69,-4.73,0,*54
1491876313.5,12285,15.63,73420.3,-2.77,-4.85,-4.85,0,*5E
1491876314.77,12286,15.63,73420.3,-2.75,-4.77,-4.77,0,*5F
1491876316.0,12287,15.63,73422.8,-2.77,-4.57,-4.57,0,*5C
1491876317.22,12288,15.63,73420.3,-2.77,-4.49,-4.57,0,*5C
1491876318.44,12289,15.63,73424.8,-2.75,-4.41,-4.45,0,*54
1491876319.66,12290,15.69,73426.3,-2.77,-4.61,-4.61,0,*5A
1491876320.9,12291,15.63,73420.0,-2.77,-4.61,-4.73,0,*58
1491876322.12,12292,15.63,73418.8,-2.77,-4.49,-4.49,0,*58
1491876323.37,12293,15.63,73422.0,-2.77,-4.57,-4.69,0,*54
1491876324.64,12294,15.63,73420.5,-2.77,-4.73,-4.81,0,*53
1491876325.89,12295,15.63,73420.8,-2.75,-4.61,-4.69,0,*55
1491876327.12,12296,15.63,73420.8,-2.75,-4.53,-4.57,0,*5A
1491876328.35,12297,15.63,73422.5,-2.75,-4.53,-4.57,0,*5B
1491876329.58,12298,15.63,73420.5,-2.75,-4.57,-4.65,0,*51
1491876330.83,12299,15.63,73420.5,-2.75,-4.65,-4.69,0,*5D
1491876332.1,12300,15.63,73422.3,-2.75,-4.69,-4.69,0,*50
1491876333.37,12301,15.63,73420.0,-2.77,-4.69,-4.69,0,*53
1491876334.59,12302,15.63,73420.0,-2.75,-4.65,-4.65,0,*52
1491876335.86,12303,15.63,73420.8,-2.77,-4.69,-4.73,0,*5A
1491876337.11,12304,15.63,73422.5,-2.75,-4.65,-4.69,0,*58
1491876338.38,12305,15.63,73420.0,-2.77,-4.81,-4.81,0,*57
1491876339.65,12306,15.63,73418.8,-2.77,-4.73,-4.81,0,*59
1491876340.91,12307,15.63,73420.8,-2.75,-4.69,-4.77,0,*58
1491876342.18,12308,15.63,73420.5,-2.77,-4.73,-4.85,0,*53
1491876343.43,12309,15.63,73418.0,-2.75,-4.65,-4.77,0,*5A
1491876344.68,12310,15.63,73416.0,-2.75,-4.65,-4.69,0,*5D
1491876345.93,12311,15.63,73420.0,-2.75,-4.65,-4.77,0,*53
1491876347.2,12312,15.63,73420.3,-2.75,-4.69,-4.81,0,*55
1491876348.48,12313,15.63,73420.3,-2.75,-4.81,-4.89,0,*5A
1491876349.75,12314,15.63,73422.5,-2.77,-4.81,-4.93,0,*54
1491876351.01,12315,15.63,73418.5,-2.77,-4.73,-4.73,0,*56
1491876352.28,12316,15.63,73416.3,-2.75,-4.69,-4.77,0,*58
1491876353.55,12317,15.63,73420.0,-2.77,-4.73,-4.85,0,*5D
1491876354.82,12318,15.63,73418.3,-2.75,-4.69,-4.77,0,*56
1491876356.08,12319,15.63,73426.8,-2.77,-4.73,-4.81,0,*57
1491876357.31,12320,15.63,73420.5,-2.75,-4.53,-4.57,0,*56
1491876358.56,12321,15.63,73420.0,-2.77,-4.61,-4.73,0,*52
1491876359.79,12322,15.63,73420.5,-2.75,-4.57,-4.65,0,*51
1491876361.01,12323,15.63,73416.0,-2.77,-4.49,-4.57,0,*5C
1491876362.24,12324,15.63,73420.3,-2.75,-4.29,-4.29,0,*56
1491876363.46,12325,15.63,73422.0,-2.75,-4.53,-4.57,0,*53
1491876364.69,12326,15.63,73418.5,-2.77,-4.61,-4.61,0,*56
1491876365.92,12327,15.63,73422.5,-2.75,-4.57,-4.65,0,*54
1491876367.15,12328,15.63,73420.0,-2.75,-4.57,-4.65,0,*5B
1491876368.38,12329,15.63,73420.3,-2.75,-4.57,-4.65,0,*5A
1491876369.63,12330,15.63,73424.8,-2.75,-4.65,-4.69,0,*5F
1491876370.9,12331,15.63,73416.0,-2.75,-4.69,-4.77,0,*5D
1491876372.17,12332,15.63,73418.8,-2.75,-4.77,-4.81,0,*58
1491876373.4,12333,15.63,73422.3,-2.75,-4.65,-4.65,0,*50
1491876374.65,12334,15.63,73420.3,-2.77,-4.61,-4.69,0,*5D
1491876375.87,12335,15.63,73418.8,-2.77,-4.61,-4.61,0,*54
1491876377.1,12336,15.63,73420.0,-2.75,-4.57,-4.57,0,*55
1491876378.33,12337,15.63,73418.8,-2.75,-4.53,-4.57,0,*50
1491876379.55,12338,15.63,73420.0,-2.75,-4.45,-4.53,0,*5C
1491876380.74,12339,15.63,73416.0,-2.73,-4.45,-4.41,0,*58
1491876381.94,12340,15.63,73416.3,-2.73,-4.57,-4.57,0,*52
1491876383.13,12341,15.63,73418.3,-2.73,-4.45,-4.45,0,*53
1491876384.32,12342,15.63,73418.8,-2.73,-4.37,-4.37,0,*50
1491876385.52,12343,15.63,73420.0,-2.73,-4.37,-4.29,0,*5E
1491876386.71,12344,15.63,73418.5,-2.73,-4.41,-4.37,0,*57
1491876387.91,12345,15.63,73416.0,-2.69,-4.41,-4.41,0,*5C
1491876389.11,12346,15.63,73418.0,-2.69,-4.37,-4.33,0,*5B
1491876390.32,12347,15.63,73416.3,-2.69,-4.25,-4.25,0,*5E
1491876391.52,12348,15.63,73418.3,-2.73,-4.41,-4.41,0,*5A
1491876392.71,12349,15.63,73420.3,-2.73,-4.53,-4.57,0,*5F
1491876393.91,12350,15.63,73418.3,-2.73,-4.57,-4.57,0,*53
1491876395.12,12351,15.63,73418.0,-2.69,-4.61,-4.61,0,*59
1491876396.32,12352,15.63,73422.0,-2.69,-4.53,-4.49,0,*51
1491876397.52,12353,15.63,73418.3,-2.69,-4.53,-4.41,0,*58
1491876398.72,12354,15.63,73420.3,-2.69,-4.49,-4.53,0,*57
1491876399.92,12355,15.63,73420.3,-2.69,-4.49,-4.49,0,*5D
1491876401.11,12356,15.63,73418.5,-2.69,-4.49,-4.41,0,*56
1491876402.31,12357,15.63,73422.0,-2.73,-4.53,-4.57,0,*50
1491876403.51,12358,15.63,73418.3,-2.73,-4.53,-4.53,0,*5B
1491876404.71,12359,15.63,73416.5,-2.69,-4.53,-4.53,0,*51
1491876405.91,12360,15.63,73416.5,-2.69,-4.49,-4.49,0,*5B
1491876407.1,12361,15.63,73420.8,-2.73,-4.41,-4.45,0,*55
1491876408.3,12362,15.63,73412.0,-2.69,-4.41,-4.41,0,*59
1491876409.5,12363,15.63,73414.8,-2.69,-4.41,-4.41,0,*58
1491876410.7,12364,15.63,73412.5,-2.69,-4.37,-4.37,0,*5F
1491876411.91,12365,15.63,73410.3,-2.69,-4.41,-4.37,0,*5F
1491876413.1,12366,15.63,73410.8,-2.73,-4.41,-4.41,0,*56
1491876414.3,12367,15.63,73410.3,-2.69,-4.53,-4.53,0,*5C
1491876415.5,12368,15.63,73412.3,-2.69,-4.53,-4.49,0,*58
1491876416.7,12369,15.63,73412.3,-2.69,-4.49,-4.53,0,*59
1491876417.92,12370,15.63,73410.3,-2.67,-4.49,-4.41,0,*5C
1491876419.12,12371,15.63,73406.8,-2.69,-4.37,-4.37,0,*5B
1491876420.34,12372,15.63,73406.3,-2.67,-4.41,-4.41,0,*56
1491876421.57,12373,15.63,73404.3,-2.67,-4.37,-4.37,0,*57
1491876422.79,12374,15.63,73404.8,-2.67,-4.25,-4.25,0,*50
1491876424.01,12375,15.63,73408.3,-2.69,-4.25,-4.21,0,*5B
1491876425.23,12376,15.63,73410.0,-2.67,-4.13,-4.13,0,*52
1491876426.44,12377,15.63,73410.3,-2.65,-4.21,-4.21,0,*51
1491876427.67,12378,15.63,73412.8,-2.67,-4.21,-4.25,0,*58
1491876428.87,12379,15.63,73412.8,-2.65,-4.33,-4.29,0,*54
1491876430.09,12380,15.63,73412.0,-2.67,-4.37,-4.41,0,*5A
1491876431.32,12381,15.63,73416.8,-2.67,-4.41,-4.37,0,*5B
1491876432.51,12382,15.63,73414.3,-2.65,-4.37,-4.41,0,*5A
1491876433.73,12383,15.63,73414.3,-2.67,-4.37,-4.37,0,*58
1491876434.95,12384,15.63,73412.0,-2.67,-4.41,-4.37,0,*5E
1491876436.14,12385,15.63,73412.0,-2.65,-4.37,-4.33,0,*58
1491876437.33,12386,15.63,73414.3,-2.65,-4.37,-4.33,0,*5B
1491876438.56,12387,15.63,73416.0,-2.67,-4.41,-4.37,0,*5D
1491876439.75,12388,15.63,73412.8,-2.65,-4.37,-4.37,0,*51
1491876440.95,12389,15.63,73412.5,-2.65,-4.33,-4.33,0,*50
1491876442.14,12390,15.63,73412.8,-2.65,-4.37,-4.25,0,*5B
1491876443.35,12391,15.63,73416.3,-2.65,-4.29,-4.21,0,*51
1491876444.55,12392,15.63,73418.0,-2.65,-4.33,-4.33,0,*5A
1491876445.75,12393,15.63,73418.8,-2.65,-4.33,-4.29,0,*50
1491876446.95,12394,15.63,73418.3,-2.65,-4.29,-4.21,0,*54
1491876448.14,12395,15.63,73414.8,-2.65,-4.37,-4.37,0,*5D
1491876449.36,12396,15.63,73418.0,-2.63,-4.37,-4.45,0,*5D
1491876450.58,12397,15.63,73416.0,-2.63,-4.37,-4.33,0,*5D
1491876451.8,12398,15.63,73420.0,-2.63,-4.33,-4.29,0,*5D
1491876453.03,12399,15.63,73424.3,-2.63,-4.33,-4.29,0,*5C
1491876454.23,12400,15.63,73422.5,-2.61,-4.17,-4.25,0,*53
1491876455.46,12401,15.63,73414.5,-2.63,-4.29,-4.21,0,*59
1491876456.66,12402,15.63,73414.8,-2.61,-4.29,-4.29,0,*50
1491876457.88,12403,15.63,73410.5,-2.63,-4.37,-4.29,0,*5C
1491876459.11,12404,15.63,73412.3,-2.63,-4.33,-4.29,0,*5F
1491876460.31,12405,15.63,73408.0,-2.65,-4.29,-4.21,0,*5B
1491876461.5,12406,15.63,73410.0,-2.61,-4.17,-4.17,0,*54
1491876462.71,12407,15.63,73410.8,-2.61,-4.25,-4.29,0,*59
1491876463.9,12408,15.63,73406.3,-2.61,-4.33,-4.33,0,*5A
1491876465.1,12409,15.63,73410.8,-2.61,-4.17,-4.17,0,*5B
1491876466.33,12410,15.63,73412.5,-2.63,-4.21,-4.21,0,*51
1491876467.52,12411,15.63,73410.3,-2.61,-4.17,-4.17,0,*52
1491876468.72,12412,15.63,73410.3,-2.61,-4.17,-4.13,0,*55
1491876469.96,12413,15.63,73408.8,-2.63,-4.21,-4.21,0,*52
1491876471.15,12414,15.63,73412.5,-2.61,-4.25,-4.17,0,*56
1491876472.35,12415,15.63,73412.8,-2.61,-4.25,-4.25,0,*56
1491876473.55,12416,15.63,73412.3,-2.61,-4.17,-4.17,0,*55
1491876474.74,12417,15.63,73412.0,-2.61,-4.17,-4.17,0,*54
1491876475.93,12418,15.63,73416.3,-2.61,-4.25,-4.17,0,*5A
1491876477.12,12419,15.63,73412.0,-2.61,-4.17,-4.17,0,*5A
1491876478.32,12420,15.63,73414.0,-2.61,-4.17,-4.17,0,*50
1491876479.51,12421,15.63,73412.0,-2.61,-4.17,-4.17,0,*51
1491876480.74,12422,15.63,73414.3,-2.59,-4.25,-4.25,0,*59
1491876481.96,12423,15.63,73414.0,-2.59,-4.29,-4.33,0,*53
1491876483.18,12424,15.63,73412.8,-2.59,-4.29,-4.29,0,*5F
1491876484.41,12425,15.63,73412.0,-2.59,-4.33,-4.29,0,*55
1491876485.64,12426,15.63,73416.0,-2.59,-4.33,-4.33,0,*5D
1491876486.86,12427,15.63,73412.0,-2.59,-4.33,-4.41,0,*59
1491876488.09,12428,15.63,73410.5,-2.59,-4.33,-4.25,0,*54
1491876489.31,12429,15.63,73412.3,-2.59,-4.29,-4.29,0,*52
1491876490.54,12430,15.63,73414.8,-2.59,-4.25,-4.29,0,*56
1491876491.77,12431,15.63,73412.3,-2.59,-4.29,-4.29,0,*5B
1491876492.99,12432,15.63,73412.8,-2.59,-4.33,-4.33,0,*58
1491876494.22,12433,15.63,73412.5,-2.59,-4.41,-4.41,0,*59
1491876495.44,12434,15.63,73410.8,-2.59,-4.33,-4.33,0,*5E
1491876496.66,12435,15.63,73412.3,-2.59,-4.33,-4.33,0,*5F
1491876497.89,12436,15.63,73414.0,-2.59,-4.29,-4.29,0,*5C
1491876499.11,12437,15.63,73412.5,-2.59,-4.33,-4.33,0,*5D
1491876500.34,12438,15.63,73416.5,-2.59,-4.29,-4.29,0,*52
1491876501.56,12439,15.63,73418.0,-2.59,-4.29,-4.33,0,*58
1491876502.78,12440,15.63,73418.3,-2.59,-4.29,-4.33,0,*56
1491876504.01,12441,15.63,73414.3,-2.59,-4.29,-4.33,0,*57
1491876505.23,12442,15.63,73414.5,-2.59,-4.25,-4.17,0,*5E
1491876506.46,12443,15.63,73412.0,-2.59,-4.25,-4.25,0,*5E
1491876507.66,12444,15.63,73408.0,-2.57,-4.21,-4.13,0,*56
1491876508.88,12445,15.63,73414.8,-2.59,-4.25,-4.17,0,*59
1491876510.11,12446,15.63,73416.5,-2.59,-4.29,-4.29,0,*5B